Palermo-Boccadifalco Airport

Jump to: basic info | weather | frequencies | runways | comments

Related pages: nearby airports | nearby navaids | notams | map

Basic information (top)

Codes: LICP
Location: lon 38.110802, lat 13.313300, elev 345 ft / 105 m msl
Status: medium_airport
Scheduled airline service: no
Links: Wikipedia Mobile

Weather (top)

Current conditions for Falcone–Borsellino Airport 11nm (21km) WNW (rec'd 2015/05/05 13:50Z):

LICJ 051350Z 06007KT 350V110 CAVOK 30/12 Q1014

Airport forecast for Falcone–Borsellino Airport 11nm (21km) WNW (rec'd 2015/05/05 12:21Z):

TAF LICJ 051100Z 0512/0612 05012KT CAVOK 
      BECMG 0517/0519 19010KT

Frequencies (top)

Verify before use: may be inaccurate or out of date.

AFIS: 122.1 MHz (AFIS)
APP: 120.2 MHz (RAISI APP)

Runways (top)

17/35: 4,016 x 148 ft (1,224 x 45 m) — paved — not lighted — threshold 17 displaced 935 ft (285 m) — threshold 35 displaced 738 ft (225 m)

Latest comments (top)

No comments yet for Palermo-Boccadifalco Airport

More... (top)

See also NOTAMs and nearby airports and navaids, or visit the Palermo-Boccadifalco Airport page at the main OurAirports website..